Regional Weather Roundup
Issued by NWS

Home | Current Version | Previous Version | Graphics & Text | Print | Product List | Glossary On
Versions: 1 2 3 4 5 6 7 8 9 10 11 12 13 14 15 16 17 18 19 20 21 22 23 24 25 26 27 28 29 30 31 32 33 34 35 36 37 38 39 40 41 42 43 44 45 46 47 48 49 50
871
ASUS45 KTFX 251110
RWRMT
MONTANA REGIONAL WEATHER ROUNDUP
NATIONAL WEATHER SERVICE GREAT FALLS MT
500 AM MDT MON JUL 25 2016

NOTE: "FAIR" INDICATES FEW OR NO CLOUDS BELOW 12000 FEET WITH NO
SIGNIFICANT WEATHER AND/OR OBSTRUCTIONS TO VISIBILITY.

MTZ001>007-043-251200-
WEST OF THE DIVIDE

CITY           SKY/WX    TMP DP  RH WIND       PRES   REMARKS
KALISPELL        N/A     49  49 100 N8        30.06R
MISSOULA         N/A     53  46  77 NW3       30.09S
BUTTE          CLEAR     48  36  63 S6        30.20S
MULLAN PASS      N/A     59  42  53 S5        30.21R
DEER LODGE       N/A     48  39  71 CALM      30.17S
EUREKA           N/A     54  48  82 CALM      30.07R
HAMILTON         N/A     54  45  71 CALM      30.10R
LIBBY            N/A     52  45  76 CALM      30.07S
PLAINS           N/A     53  45  74 CALM      30.07R
RONAN            N/A     51  46  83 CALM      30.11R
$$

MTZ008-052>055-251200-
SOUTHWEST MONTANA

CITY           SKY/WX    TMP DP  RH WIND       PRES   REMARKS
BOZEMAN        CLEAR     54  43  66 CALM      30.12S
DILLON         CLEAR     53  35  50 SW9       30.15R
W YELLOWSTONE  CLOUDY    32  27  80 SW3       30.29S
ENNIS          CLEAR     55  30  38 CALM      30.22R
THREE FORKS      N/A     48  39  71 CALM      30.09R
TWIN BRIDGES     N/A     54  33  44 CALM      30.12R
$$

MTZ009-010-012-014-046-048-049-054-251200-
EAST SLOPES AND CENTRAL MONTANA

CITY           SKY/WX    TMP DP  RH WIND       PRES   REMARKS
CUT BANK         N/A     52  44  74 NW3       30.07R
GREAT FALLS    CLEAR     55  42  61 S6        30.07R
MALMSTROM AFB  CLEAR     55  45  68 SW6       30.07R
HELENA         CLEAR     63  39  41 W3        30.08F
CHOTEAU          N/A     61  43  51 SW6       30.10S
CONRAD           N/A     51  46  83 CALM      30.08R
$$

MTZ011-013-016-021-045-047-050-051-251200-
NORTH CENTRAL MONTANA

CITY           SKY/WX    TMP DP  RH WIND       PRES   REMARKS
HAVRE          CLEAR     55  46  71 CALM      29.98S
LEWISTOWN      CLEAR     54  43  66 SE6       30.08R
N BAR RANCH      N/A     52  41  66 W8        30.11R
CHINOOK          N/A     54  52  94 CALM      29.99R
$$

MTZ017>020-022>027-061-062-251200-
NORTHEAST MONTANA

CITY           SKY/WX    TMP DP  RH WIND       PRES   REMARKS
GLASGOW        CLEAR     57  51  80 NE6       29.97S
JORDAN           N/A     53  45  74 NW6       29.98S
SIDNEY         CLEAR     57  52  83 NW3       29.96S
WOLF POINT     CLEAR     55  51  86 CALM      29.97S
PLENTYWOOD       N/A     63  55  77 CALM      29.98S
POPLAR           N/A     59  55  88 N7        29.97R
SCOBEY           N/A     52  43  71 CALM      29.99S VSB 0
$$

MTZ028>42-056>058-251200-
SOUTHCENTRAL AND SOUTHEAST MONTANA

CITY           SKY/WX    TMP DP  RH WIND       PRES   REMARKS
BAKER          CLEAR     60  50  69 SE8       30.02S
BILLINGS       CLEAR     64  42  44 W9        30.03R
LIVINGSTON     CLEAR     48  36  63 NW6       30.12R
MILES CITY     CLEAR     66  47  50 CALM      29.96S
EKALAKA          N/A     72  48  42 S2        30.02S
FORSYTH          N/A     63  46  55 CALM      29.97R
LAUREL           N/A     61  38  42 CALM      30.03R
ROUNDUP          N/A     57  42  57 SW1       29.95R
$$

REGIONAL REPORTS...DAKOTAS

CITY           SKY/WX    TMP DP  RH WIND       PRES   REMARKS
WILLISTON      CLEAR     60  55  83 N3        29.97S
MINOT          CLEAR     61  58  90 CALM      29.99F
DICKINSON      CLEAR     56  50  80 S12       29.99S
BEACH            N/A     59  52  77 S8        30.02S
CROSBY           N/A     55  55 100 SE7       30.00S
WATFORD CITY     N/A    N/A N/A N/A MISG        N/A
BISMARCK       CLEAR     59  58  96 E5        30.02F
GRAND FORKS    PTCLDY    59  56  89 W3        29.99R
FARGO          PTCLDY    57  55  93 CALM      30.02R
BUFFALO SD       N/A     63  50  62 SE7       29.97S
RAPID CITY     CLEAR     65  55  70 SE12      30.08S
$$

REGIONAL REPORTS...WYOMING/IDAHO/WASHINGTON

CITY           SKY/WX    TMP DP  RH WIND       PRES   REMARKS
GILLETTE       CLEAR     62  52  69 N5        30.11S
SHERIDAN       CLEAR     57  43  59 SW5       30.05S
BUFFALO WY     CLEAR     64  37  36 NE3       30.13S
CODY           CLEAR     64  32  29 SW5       30.13S
YELLOWSTONE LA   N/A     37  32  82 CALM      30.38R
IDAHO FALLS    CLOUDY    47  40  76 CALM      30.14R
SALMON         CLEAR     52  39  62 CALM      30.09R
BOISE            N/A     66  36  32 SE10      29.99R
SPOKANE          N/A     63  46  54 CALM      30.03R
$$

REGIONAL REPORTS...ALBERTA

CITY           SKY/WX    TMP DP  RH WIND       PRES   REMARKS
EDMONTON       MOCLDY    57  50  77 W6        30.04R
CALGARY        PTCLDY    59  50  72 N12       30.12R
LETHBRIDGE     CLEAR     52  50  93 W5        30.03R
MEDICINE HAT   CLEAR     55  52  88 SE3       29.96R
WATERTON GATE    N/A     55  46  71 S8          N/A
MILK RIVER       N/A     55  48  76 W12         N/A
ONEFOUR          N/A     57  48  72 N6          N/A
$$

REGIONAL REPORTS...SASKATCHEWAN

CITY           SKY/WX    TMP DP  RH WIND       PRES   REMARKS
SWIFT CURRENT  CLEAR     55  52  88 SW10      29.97R
REGINA         PTCLDY    55  52  88 SE7       29.98S
SASKATOON      MOCLDY    57  57 100 W5        29.97S
CYPRESS HILLS    N/A     59  39  47 W1          N/A
VAL MARIE        N/A     46  43  87 NE3         N/A
ROCKGLEN         N/A     57  54  88 S7          N/A
ASSINIBOIA       N/A     55  52  88 W7          N/A
$$




USA.gov is the U.S. government's official web portal to all federal, state and local government web resources and services.